PEGASUS DEB, 24007

Orbit data source: Space-Track

PEGASUS DEB, 24007 is space debris in LEO originally from a launch on Thu, 19 May 1994 UTC launched from the Air Force Western Test Range (AFWTR). Debris objects in space refer to the collection of defunct objects orbiting the Earth. Examples of debris include non-operational satellites, rocket bodies, and fragments generated from explosions, collisions, or faulty payload assembly.

Loading next visibility...
Identifier
24007, 1994-029BC
Orbit
LEO
Country
Flag of USUS
Related business
Manufacturer
Unknown
Mission
Spacecraft
Bus & Motor
Unknown
Mass
Unknown
Launch date (UTC)
1994-05-19 (32 years ago)
Launch vehicle
Unknown
Launch site
Air Force Western Test Range (AFWTR)
Object type
Payload
Rocket body
Debris
Shape & HBR
Unknown shape, 0.1 m
Radar Cross Section
Medium (>0.1 m² and <1 m²)

Expand to show TLE details & history
Last TLE update: 8 hours ago

TLE from 8 hours ago
0 PEGASUS DEB
1 24007U 94029BC  26207.53444771  .00002843  00000-0  19784-3 0  9998
2 24007  81.9168 225.5153 0063712  99.9111  53.9516 15.03431969630807
Epoch: 2026-07-26T12:49Z
TLE epoch observation values (Epoch: 2026-07-26T12:49:36.282Z)
Latitude
25.30464°
Longitude
-94.94585°
Altitude
533.678 km
Speed
7.612 km/s
True Right ascension
02h 46m 44s
True Declination
25° 10' 04"
Sunlit
Object was in daylight at epoch
Visualization orbit readout
Latitude
Unknown
Longitude
Unknown
Altitude
Unknown
Speed
Unknown
Apparent Right ascension
Unknown
Apparent Declination
Unknown
Sunlit
N/A
Visualization observer readout
Local Sidereal Time
09:56:34
Azimuth
Unknown
Elevation
Unknown
Doppler factor
Unknown
Orbital elements
Apogee altitude
597.503 km
Perigee altitude
509.179 km
Semi-major axis
6,931.478 km
Eccentricity
0.00637
Inclination
81.9168°
RAAN
225.5153°
Arg. of periapsis
99.9111°
True anomaly
54.54466°
Mean anomaly
53.9516°
Eccentric anomaly
54.24785°
Mean motion
3.76101 °/min
Orbital period
95.72 mins
BSTAR
0.00019784
Loading maneuver chart data...
Computing Atmospheric mass density...

Documentation

Showing up to 5 results
|